Find Starlink 3812

NORAD ID: 52346 Int'l Des: 2022-045 Owner: SPXS Country: US Constellation: starlink operational
LEOCIRCULAR

リアルタイム位置

3D地球を読み込み中...

Starlink 3812について

説明を読み込み中...

次回通過

Passes for default location (London). Set your location on the main map for personalized predictions.

高度履歴

Loading altitude history...

軌道要素

1 52346U 22045R 26118.98449933 .00000646 00000-0 58672-4 0 9998
2 52346 53.2178 333.3475 0001415 87.8386 272.2768 15.08839321223378
Epoch: Apr 28, 2026 • Age: 16 hours

現在のステータス

高度 544.5 km
速度 7.60 km/s
衛星直下点 49.17°N, 6.84°W
打ち上げ日 Apr 29, 2022
運用期間 3.9 years
タイプ internet

技術仕様

分類 Payload
質量 297.00 kg
乾燥質量 275.00 kg
総質量 297.00 kg
長さ 0.20 m
直径 2.80 m
スパン 9.00 m
形状 Box + pan
製造者 SPXS
バスタイプ Starlink
フェーズステータス In Orbit
所有者/国 SPXS/US

Most Searched